Home > Products > State Listing > Idaho Data
Latest:
 RWRID |
  [top]

000
ASUS45 KBOI 250310
RWRID
WEATHER ROUNDUP FOR IDAHO
NATIONAL WEATHER SERVICE BOISE ID
900 PM MDT FRI OCT 24 2014

NOTE: "FAIR" INDICATES FEW OR NO CLOUDS BELOW 12000 FEET
WITH NO SIGNIFICANT WEATHER AND/OR OBSTRUCTIONS TO VISIBILITY

IDZ012-014-250400-
SOUTHWEST IDAHO


CITY           SKY/WX    TMP DP  RH WIND       PRES   REMARKS
BOISE          MOCLDY    54  49  83 CALM      29.95F
CALDWELL       MOCLDY    54  45  71 W3        29.98S
MOUNTAIN HOME  MOCLDY    56  55  96 N3        29.96F
$$

IDZ016-017-250400-
SOUTHCENTRAL IDAHO


CITY           SKY/WX    TMP DP  RH WIND       PRES   REMARKS
BURLEY         CLEAR     57  32  38 CALM      30.02R
JEROME         CLEAR     61  27  27 NE16      30.01S
TWIN FALLS     CLEAR     49  33  54 E8        30.01F
$$

IDZ019>023-250400-
SOUTHEAST IDAHO


CITY           SKY/WX    TMP DP  RH WIND       PRES   REMARKS
IDAHO FALLS    CLEAR     55  32  41 SW5       30.10S
POCATELLO      CLEAR     63  26  24 S13       30.06S
REXBURG        CLEAR     57  29  34 S8        30.10S
$$

IDZ006-010-011-018-031-032-250400-
CENTRAL IDAHO MOUNTAINS


CITY           SKY/WX    TMP DP  RH WIND       PRES   REMARKS
MCCALL         MOCLDY    41  40  96 CALM      30.02S
HAILEY         CLEAR     50  32  50 NW7       30.12
STANLEY          N/A     38  31  76 CALM      30.13S
SALMON         CLEAR     43  39  87 SE3       30.08S
CHALLIS        CLEAR     43  37  79 NW6       30.08R
$$

IDZ002-004-006-007-026-250400-
NORTHERN IDAHO


CITY           SKY/WX    TMP DP  RH WIND       PRES   REMARKS
LEWISTON       CLOUDY    53  50  89 SE5       29.98S
LOWELL           N/A     50  49  96 CALM      30.03F
COEUR D`ALENE  CLOUDY    48  39  71 N10       30.00F
MULLAN PASS    LGT RAIN  36  36 100 SE9G18    30.05F FOG     WCI  29
$$




000
ASUS45 KBOI 250210
RWRID
WEATHER ROUNDUP FOR IDAHO
NATIONAL WEATHER SERVICE BOISE ID
800 PM MDT FRI OCT 24 2014

NOTE: "FAIR" INDICATES FEW OR NO CLOUDS BELOW 12000 FEET
WITH NO SIGNIFICANT WEATHER AND/OR OBSTRUCTIONS TO VISIBILITY

IDZ012-014-250300-
SOUTHWEST IDAHO


CITY           SKY/WX    TMP DP  RH WIND       PRES   REMARKS
BOISE          CLEAR     57  50  77 NW3       29.97S
CALDWELL       CLEAR     54  45  71 NW5       29.99S
MOUNTAIN HOME  CLEAR     59  52  76 N7        29.97R
$$

IDZ016-017-250300-
SOUTHCENTRAL IDAHO


CITY           SKY/WX    TMP DP  RH WIND       PRES   REMARKS
BURLEY         CLEAR     59  33  37 CALM      30.01S
JEROME         CLEAR     60  27  28 NE14      30.01S
TWIN FALLS     CLEAR     51  34  52 SE7       30.02R
$$

IDZ019>023-250300-
SOUTHEAST IDAHO


CITY           SKY/WX    TMP DP  RH WIND       PRES   REMARKS
IDAHO FALLS    CLEAR     57  33  40 SE7       30.10R
POCATELLO      CLEAR     64  25  22 S14       30.06S
REXBURG        CLEAR     55  29  36 S6        30.10R
$$

IDZ006-010-011-018-031-032-250300-
CENTRAL IDAHO MOUNTAINS


CITY           SKY/WX    TMP DP  RH WIND       PRES   REMARKS
MCCALL         CLEAR     43  41  93 NE3       30.02F
STANLEY          N/A     43  31  62 NW3       30.13R
SALMON         PTCLDY    43  39  87 SE6       30.07S
CHALLIS        CLEAR     47  39  74 CALM      30.07R
$$

IDZ002-004-006-007-026-250300-
NORTHERN IDAHO


CITY           SKY/WX    TMP DP  RH WIND       PRES   REMARKS
LEWISTON       CLOUDY    54  50  86 E3        29.98F
LOWELL           N/A     51  50  96 CALM      30.04F
COEUR D`ALENE  CLOUDY    48  41  76 N9        30.01F
MULLAN PASS    LGT RAIN  36  35  96 SE10      30.06F WCI  28
$$




000
ASUS45 KBOI 250110
RWRID
WEATHER ROUNDUP FOR IDAHO
NATIONAL WEATHER SERVICE BOISE ID
700 PM MDT FRI OCT 24 2014

NOTE: "FAIR" INDICATES FEW OR NO CLOUDS BELOW 12000 FEET
WITH NO SIGNIFICANT WEATHER AND/OR OBSTRUCTIONS TO VISIBILITY

IDZ012-014-250200-
SOUTHWEST IDAHO


CITY           SKY/WX    TMP DP  RH WIND       PRES   REMARKS
BOISE          CLEAR     59  50  72 W5        29.97R
CALDWELL       CLEAR     55  45  67 NW8       29.99S
MOUNTAIN HOME  CLEAR     62  48  60 NW6       29.95S
$$

IDZ016-017-250200-
SOUTHCENTRAL IDAHO


CITY           SKY/WX    TMP DP  RH WIND       PRES   REMARKS
BURLEY         CLEAR     63  35  35 CALM      30.01S
JEROME         PTCLDY    61  34  36 NE13      30.01F
TWIN FALLS     CLEAR     63  34  33 N5        30.01F
$$

IDZ019>023-250200-
SOUTHEAST IDAHO


CITY           SKY/WX    TMP DP  RH WIND       PRES   REMARKS
IDAHO FALLS    CLEAR     64  32  30 S3        30.09S
POCATELLO      CLEAR     65  26  23 S15       30.06F
REXBURG        CLEAR     59  30  33 S6        30.09S
$$

IDZ006-010-011-018-031-032-250200-
CENTRAL IDAHO MOUNTAINS


CITY           SKY/WX    TMP DP  RH WIND       PRES   REMARKS
MCCALL         CLEAR     47  44  90 N6        30.03F
HAILEY         CLEAR     55  30  38 CALM      30.10F
STANLEY          N/A     48  29  47 S5        30.12S
SALMON         MOCLDY    46  43  87 CALM      30.07R
CHALLIS        CLEAR     48  40  73 NW5       30.06S
$$

IDZ002-004-006-007-026-250200-
NORTHERN IDAHO


CITY           SKY/WX    TMP DP  RH WIND       PRES   REMARKS
LEWISTON       LGT RAIN  54  50  86 NE5       29.99F
LOWELL           N/A     51  50  96 NW3       30.05F
COEUR D`ALENE  CLOUDY    50  41  71 N10       30.03F
MULLAN PASS    CLOUDY    36  35  96 SE6       30.07S WCI  31
$$




000
ASUS45 KBOI 250010
RWRID
WEATHER ROUNDUP FOR IDAHO
NATIONAL WEATHER SERVICE BOISE ID
600 PM MDT FRI OCT 24 2014

NOTE: "FAIR" INDICATES FEW OR NO CLOUDS BELOW 12000 FEET
WITH NO SIGNIFICANT WEATHER AND/OR OBSTRUCTIONS TO VISIBILITY

IDZ012-014-250100-
SOUTHWEST IDAHO


CITY           SKY/WX    TMP DP  RH WIND       PRES   REMARKS
BOISE          CLEAR     63  50  62 NW8       29.96F
CALDWELL       CLEAR     61  46  59 NW6       29.99F
MOUNTAIN HOME  CLEAR     71  42  35 W3        29.95F
$$

IDZ016-017-250100-
SOUTHCENTRAL IDAHO


CITY           SKY/WX    TMP DP  RH WIND       PRES   REMARKS
BURLEY         CLEAR     71  34  25 N5        30.01F
JEROME         CLEAR     69  36  29 N8        30.02F
TWIN FALLS     CLEAR     73  38  27 N3        30.02F
$$

IDZ019>023-250100-
SOUTHEAST IDAHO


CITY           SKY/WX    TMP DP  RH WIND       PRES   REMARKS
IDAHO FALLS    CLEAR     66  33  29 SW8       30.09S
POCATELLO      CLEAR     70  27  20 S17       30.07S
REXBURG        CLEAR     66  27  23 SW12      30.09S
$$

IDZ006-010-011-018-031-032-250100-
CENTRAL IDAHO MOUNTAINS


CITY           SKY/WX    TMP DP  RH WIND       PRES   REMARKS
MCCALL         CLOUDY    50  45  83 CALM      30.04F
HAILEY         CLEAR     61  30  31 SE7       30.11F
STANLEY          N/A     53  28  38 SE5       30.12F
SALMON         CLOUDY    48  43  81 CALM      30.07S
CHALLIS        PTCLDY    56  42  59 N5        30.06F
$$

IDZ002-004-006-007-026-250100-
NORTHERN IDAHO


CITY           SKY/WX    TMP DP  RH WIND       PRES   REMARKS
LEWISTON       LGT RAIN  55  50  83 NE6       30.00F
LOWELL           N/A     51  50  96 CALM      30.06F
COEUR D`ALENE  CLOUDY    54  41  62 NE9       30.04F
MULLAN PASS    CLOUDY    37  36  96 SE5       30.08F WCI  33
$$




000
ASUS45 KBOI 242310
RWRID
WEATHER ROUNDUP FOR IDAHO
NATIONAL WEATHER SERVICE BOISE ID
500 PM MDT FRI OCT 24 2014

NOTE: "FAIR" INDICATES FEW OR NO CLOUDS BELOW 12000 FEET
WITH NO SIGNIFICANT WEATHER AND/OR OBSTRUCTIONS TO VISIBILITY

IDZ012-014-250000-
SOUTHWEST IDAHO


CITY           SKY/WX    TMP DP  RH WIND       PRES   REMARKS
BOISE          SUNNY     66  50  56 NW9       29.98F
CALDWELL       SUNNY     63  46  55 N5        30.01F
MOUNTAIN HOME  SUNNY     71  41  33 VRB2      29.97F
$$

IDZ016-017-250000-
SOUTHCENTRAL IDAHO


CITY           SKY/WX    TMP DP  RH WIND       PRES   REMARKS
BURLEY         SUNNY     74  34  23 N7        30.02F
JEROME         SUNNY     74  28  18 N9        30.03S
TWIN FALLS     SUNNY     75  34  22 NE7       30.03S
$$

IDZ019>023-250000-
SOUTHEAST IDAHO


CITY           SKY/WX    TMP DP  RH WIND       PRES   REMARKS
IDAHO FALLS    SUNNY     70  31  23 SW13      30.09F
POCATELLO      SUNNY     74  28  18 S14G22    30.07F
REXBURG        SUNNY     68  29  23 SW15G23   30.09F
$$

IDZ006-010-011-018-031-032-250000-
CENTRAL IDAHO MOUNTAINS


CITY           SKY/WX    TMP DP  RH WIND       PRES   REMARKS
MCCALL         CLOUDY    49  44  83 VRB3      30.06S
HAILEY         SUNNY     66  30  26 CALM      30.12S
STANLEY          N/A     59  24  26 S6G18     30.13R
SALMON         CLOUDY    50  43  76 CALM      30.07F
CHALLIS        PTSUNNY   59  41  51 CALM      30.07S
$$

IDZ002-004-006-007-026-250000-
NORTHERN IDAHO


CITY           SKY/WX    TMP DP  RH WIND       PRES   REMARKS
LEWISTON       LGT RAIN  57  50  77 E5        30.03S
LOWELL           N/A     52  51  97 CALM      30.07S
COEUR D`ALENE  CLOUDY    55  39  54 CALM      30.05S
MULLAN PASS    CLOUDY    37  35  92 CALM      30.09R
$$




000
ASUS45 KBOI 242210
RWRID
WEATHER ROUNDUP FOR IDAHO
NATIONAL WEATHER SERVICE BOISE ID
400 PM MDT FRI OCT 24 2014

NOTE: "FAIR" INDICATES FEW OR NO CLOUDS BELOW 12000 FEET
WITH NO SIGNIFICANT WEATHER AND/OR OBSTRUCTIONS TO VISIBILITY

IDZ012-014-242300-
SOUTHWEST IDAHO


CITY           SKY/WX    TMP DP  RH WIND       PRES   REMARKS
BOISE          SUNNY     66  47  50 VRB3      30.00F
CALDWELL       SUNNY     63  45  51 N3        30.03F
MOUNTAIN HOME  MOSUNNY   70  44  39 SE6       29.99F
$$

IDZ016-017-242300-
SOUTHCENTRAL IDAHO


CITY           SKY/WX    TMP DP  RH WIND       PRES   REMARKS
BURLEY         SUNNY     75  34  22 N6        30.03F
JEROME         SUNNY     74  30  19 N10       30.03F
TWIN FALLS     SUNNY     75  35  23 N8        30.03F
$$

IDZ019>023-242300-
SOUTHEAST IDAHO


CITY           SKY/WX    TMP DP  RH WIND       PRES   REMARKS
IDAHO FALLS    SUNNY     71  32  23 SW14      30.10F
POCATELLO      SUNNY     75  27  17 SW10      30.08F
REXBURG        SUNNY     68  30  24 SW13G23   30.10F
$$

IDZ006-010-011-018-031-032-242300-
CENTRAL IDAHO MOUNTAINS


CITY           SKY/WX    TMP DP  RH WIND       PRES   REMARKS
MCCALL         CLOUDY    48  43  82 S6        30.06S
HAILEY         MOSUNNY   64  32  29 S9        30.12F
STANLEY          N/A     59  22  24 W12G18    30.12S
SALMON         CLOUDY    50  43  76 N3        30.08F
CHALLIS        CLOUDY    54  42  64 CALM      30.07F
$$

IDZ002-004-006-007-026-242300-
NORTHERN IDAHO


CITY           SKY/WX    TMP DP  RH WIND       PRES   REMARKS
LEWISTON       CLOUDY    58  49  72 NE7       30.03F
LOWELL           N/A     53  51  93 CALM      30.07F
COEUR D`ALENE  CLOUDY    55  41  58 CALM      30.04F
MULLAN PASS    CLOUDY    38  34  85 CALM      30.08F
$$




000
ASUS45 KBOI 242110
RWRID
WEATHER ROUNDUP FOR IDAHO
NATIONAL WEATHER SERVICE BOISE ID
300 PM MDT FRI OCT 24 2014

NOTE: "FAIR" INDICATES FEW OR NO CLOUDS BELOW 12000 FEET
WITH NO SIGNIFICANT WEATHER AND/OR OBSTRUCTIONS TO VISIBILITY

IDZ012-014-242200-
SOUTHWEST IDAHO


CITY           SKY/WX    TMP DP  RH WIND       PRES   REMARKS
BOISE          SUNNY     65  47  52 SE5       30.02F
CALDWELL       SUNNY     61  45  55 CALM      30.05F
MOUNTAIN HOME  SUNNY     68  44  41 SE9       30.00F
$$

IDZ016-017-242200-
SOUTHCENTRAL IDAHO


CITY           SKY/WX    TMP DP  RH WIND       PRES   REMARKS
BURLEY         SUNNY     74  35  24 NW6       30.04F
JEROME         SUNNY     73  34  23 N8        30.05F
TWIN FALLS     SUNNY     73  37  27 VRB7      30.05F
$$

IDZ019>023-242200-
SOUTHEAST IDAHO


CITY           SKY/WX    TMP DP  RH WIND       PRES   REMARKS
IDAHO FALLS    SUNNY     70  36  28 S14       30.11F
POCATELLO      SUNNY     72  35  25 SW3       30.09F
REXBURG        SUNNY     67  31  26 SW21G28   30.11F
$$

IDZ006-010-011-018-031-032-242200-
CENTRAL IDAHO MOUNTAINS


CITY           SKY/WX    TMP DP  RH WIND       PRES   REMARKS
MCCALL         CLOUDY    47  43  86 NE3       30.07F
HAILEY         MOSUNNY   63  37  39 CALM      30.13F
STANLEY          N/A     58  26  29 S6        30.12F
SALMON         CLOUDY    50  45  81 CALM      30.09F
CHALLIS        CLOUDY    55  42  61 CALM      30.08F
$$

IDZ002-004-006-007-026-242200-
NORTHERN IDAHO


CITY           SKY/WX    TMP DP  RH WIND       PRES   REMARKS
LEWISTON       CLOUDY    58  49  72 NE5       30.04F
LOWELL           N/A     53  51  93 CALM      30.09F
COEUR D`ALENE  CLOUDY    54  39  58 S5        30.06F
MULLAN PASS    CLOUDY    38  34  85 CALM      30.09S
$$




000
ASUS45 KBOI 242010
RWRID
WEATHER ROUNDUP FOR IDAHO
NATIONAL WEATHER SERVICE BOISE ID
200 PM MDT FRI OCT 24 2014

NOTE: "FAIR" INDICATES FEW OR NO CLOUDS BELOW 12000 FEET
WITH NO SIGNIFICANT WEATHER AND/OR OBSTRUCTIONS TO VISIBILITY

IDZ012-014-242100-
SOUTHWEST IDAHO


CITY           SKY/WX    TMP DP  RH WIND       PRES   REMARKS
BOISE          SUNNY     62  49  62 CALM      30.05F
CALDWELL       SUNNY     57  45  62 CALM      30.08F
MOUNTAIN HOME  MOSUNNY   65  47  52 E7        30.04F
$$

IDZ016-017-242100-
SOUTHCENTRAL IDAHO


CITY           SKY/WX    TMP DP  RH WIND       PRES   REMARKS
BURLEY         SUNNY     73  35  25 VRB3      30.06F
JEROME         SUNNY     71  35  26 N7        30.08F
TWIN FALLS     SUNNY     70  37  29 N7        30.07F
$$

IDZ019>023-242100-
SOUTHEAST IDAHO


CITY           SKY/WX    TMP DP  RH WIND       PRES   REMARKS
IDAHO FALLS    SUNNY     68  35  29 SW17      30.12F
POCATELLO      SUNNY     70  36  28 NW7       30.12F
REXBURG        PTSUNNY   67  33  28 SW17G25   30.12F
$$

IDZ006-010-011-018-031-032-242100-
CENTRAL IDAHO MOUNTAINS


CITY           SKY/WX    TMP DP  RH WIND       PRES   REMARKS
MCCALL         CLOUDY    44  42  93 N3        30.10F
HAILEY         MOSUNNY   61  37  41 CALM      30.15F
STANLEY          N/A     51  39  63 VRB6      30.14F
SALMON         CLOUDY    48  45  87 CALM      30.11F
CHALLIS        CLOUDY    52  43  71 CALM      30.10F
$$

IDZ002-004-006-007-026-242100-
NORTHERN IDAHO


CITY           SKY/WX    TMP DP  RH WIND       PRES   REMARKS
LEWISTON       CLOUDY    57  47  69 E5        30.06F
LOWELL           N/A     54  50  86 CALM      30.11F
COEUR D`ALENE  PTSUNNY   54  39  58 S6        30.07F
MULLAN PASS    CLOUDY    38  34  85 VRB3      30.09F
$$




000
ASUS45 KBOI 241910
RWRID
WEATHER ROUNDUP FOR IDAHO
NATIONAL WEATHER SERVICE BOISE ID
100 PM MDT FRI OCT 24 2014

NOTE: "FAIR" INDICATES FEW OR NO CLOUDS BELOW 12000 FEET
WITH NO SIGNIFICANT WEATHER AND/OR OBSTRUCTIONS TO VISIBILITY

IDZ012-014-242000-
SOUTHWEST IDAHO


CITY           SKY/WX    TMP DP  RH WIND       PRES   REMARKS
BOISE          MOSUNNY   58  49  72 CALM      30.08F
CALDWELL       PTSUNNY   57  46  67 NW5       30.12S
MOUNTAIN HOME  SUNNY     62  48  59 E7        30.07F
$$

IDZ016-017-242000-
SOUTHCENTRAL IDAHO


CITY           SKY/WX    TMP DP  RH WIND       PRES   REMARKS
BURLEY         SUNNY     70  36  28 SW6       30.09F
JEROME         SUNNY     66  35  31 CALM      30.10F
TWIN FALLS     SUNNY     68  39  34 N7        30.10F
$$

IDZ019>023-242000-
SOUTHEAST IDAHO


CITY           SKY/WX    TMP DP  RH WIND       PRES   REMARKS
IDAHO FALLS    MOSUNNY   65  38  36 SW10      30.15F
POCATELLO      SUNNY     67  38  34 NW6       30.14F
REXBURG        PTSUNNY   61  37  41 S6        30.15F
$$

IDZ006-010-011-018-031-032-242000-
CENTRAL IDAHO MOUNTAINS


CITY           SKY/WX    TMP DP  RH WIND       PRES   REMARKS
MCCALL         LGT RAIN  43  41  93 NE3       30.12F
HAILEY         PTSUNNY   55  43  62 CALM      30.18F
STANLEY          N/A     47  39  74 NW3       30.16F
SALMON         CLOUDY    48  45  87 MISG      30.13S
CHALLIS        CLOUDY    51  43  74 SW5       30.11F
$$

IDZ002-004-006-007-026-242000-
NORTHERN IDAHO


CITY           SKY/WX    TMP DP  RH WIND       PRES   REMARKS
LEWISTON       CLOUDY    55  49  80 NE5       30.08F
LOWELL           N/A     52  49  89 CALM      30.14F
COEUR D`ALENE  CLOUDY    52  41  66 S7        30.09F
MULLAN PASS    CLOUDY    38  33  82 CALM      30.10S
$$




000
ASUS45 KBOI 241810
RWRID
WEATHER ROUNDUP FOR IDAHO
NATIONAL WEATHER SERVICE BOISE ID
1200 PM MDT FRI OCT 24 2014

NOTE: "FAIR" INDICATES FEW OR NO CLOUDS BELOW 12000 FEET
WITH NO SIGNIFICANT WEATHER AND/OR OBSTRUCTIONS TO VISIBILITY

IDZ012-014-241900-
SOUTHWEST IDAHO


CITY           SKY/WX    TMP DP  RH WIND       PRES   REMARKS
BOISE          CLOUDY    55  49  80 CALM      30.09F
CALDWELL       CLOUDY    55  45  67 NW5       30.12S
MOUNTAIN HOME  PTSUNNY   58  51  76 E5        30.10F
$$

IDZ016-017-241900-
SOUTHCENTRAL IDAHO


CITY           SKY/WX    TMP DP  RH WIND       PRES   REMARKS
BURLEY         SUNNY     64  38  38 E3        30.11F
JEROME         SUNNY     64  39  39 NE10      30.12F
TWIN FALLS     SUNNY     64  41  42 NE8       30.11F
$$

IDZ019>023-241900-
SOUTHEAST IDAHO


CITY           SKY/WX    TMP DP  RH WIND       PRES   REMARKS
IDAHO FALLS    PTSUNNY   61  39  44 W7        30.16S
POCATELLO      SUNNY     64  36  35 VRB3      30.15F
REXBURG        PTSUNNY   59  37  44 VRB7      30.16F
$$

IDZ006-010-011-018-031-032-241900-
CENTRAL IDAHO MOUNTAINS


CITY           SKY/WX    TMP DP  RH WIND       PRES   REMARKS
MCCALL         LGT RAIN  42  40  92 NE3       30.13S
HAILEY         PTSUNNY   52  43  71 NW6       30.19S
STANLEY          N/A     45  40  82 N5        30.17F
SALMON         CLOUDY    48  45  87 N3        30.13R
CHALLIS        CLOUDY    47  43  86 CALM      30.12F
$$

IDZ002-004-006-007-026-241900-
NORTHERN IDAHO


CITY           SKY/WX    TMP DP  RH WIND       PRES   REMARKS
LEWISTON       CLOUDY    53  49  86 NE5       30.09F
LOWELL           N/A     50  49  96 CALM      30.15F
COEUR D`ALENE  CLOUDY    50  41  71 S6        30.10S
MULLAN PASS    CLOUDY    37  33  85 VRB3      30.10S
$$




000
ASUS45 KBOI 241710
RWRID
WEATHER ROUNDUP FOR IDAHO
NATIONAL WEATHER SERVICE BOISE ID
1100 AM MDT FRI OCT 24 2014

NOTE: "FAIR" INDICATES FEW OR NO CLOUDS BELOW 12000 FEET
WITH NO SIGNIFICANT WEATHER AND/OR OBSTRUCTIONS TO VISIBILITY

IDZ012-014-241800-
SOUTHWEST IDAHO


CITY           SKY/WX    TMP DP  RH WIND       PRES   REMARKS
BOISE          CLOUDY    54  49  83 CALM      30.11S
CALDWELL       CLOUDY    54  45  71 CALM      30.13S
MOUNTAIN HOME  CLOUDY    55  55  98 CALM      30.11S
$$

IDZ016-017-241800-
SOUTHCENTRAL IDAHO


CITY           SKY/WX    TMP DP  RH WIND       PRES   REMARKS
BURLEY         SUNNY     58  41  53 NE6       30.12S
JEROME         SUNNY     60  40  47 NE7       30.13R
TWIN FALLS     SUNNY     60  40  47 NE8       30.12S
$$

IDZ019>023-241800-
SOUTHEAST IDAHO


CITY           SKY/WX    TMP DP  RH WIND       PRES   REMARKS
IDAHO FALLS    PTSUNNY   58  40  51 SW9       30.16F
POCATELLO      SUNNY     61  39  44 CALM      30.16S
REXBURG        PTSUNNY   55  38  52 SW7       30.17R
$$

IDZ006-010-011-018-031-032-241800-
CENTRAL IDAHO MOUNTAINS


CITY           SKY/WX    TMP DP  RH WIND       PRES   REMARKS
MCCALL         LGT RAIN  42  39  89 N5        30.13R
HAILEY         PTSUNNY   50  45  81 NW7       30.19R
STANLEY          N/A     44  40  85 CALM      30.18R
SALMON         CLOUDY    48  45  87 N3        30.13R
CHALLIS        CLOUDY    47  42  83 CALM      30.13R
$$

IDZ002-004-006-007-026-241800-
NORTHERN IDAHO


CITY           SKY/WX    TMP DP  RH WIND       PRES   REMARKS
LEWISTON       CLOUDY    52  49  89 E6        30.11R
LOWELL           N/A     50  48  93 CALM      30.17R
COEUR D`ALENE  CLOUDY    46  43  87 S6        30.10S
MULLAN PASS      N/A     35  32  88 VRB3      30.10R
$$




000
ASUS45 KBOI 241610
RWRID
WEATHER ROUNDUP FOR IDAHO
NATIONAL WEATHER SERVICE BOISE ID
1000 AM MDT FRI OCT 24 2014

NOTE: "FAIR" INDICATES FEW OR NO CLOUDS BELOW 12000 FEET
WITH NO SIGNIFICANT WEATHER AND/OR OBSTRUCTIONS TO VISIBILITY

IDZ012-014-241700-
SOUTHWEST IDAHO


CITY           SKY/WX    TMP DP  RH WIND       PRES   REMARKS
BOISE          CLOUDY    52  49  89 CALM      30.11R
CALDWELL       CLOUDY    52  43  71 CALM      30.13S
MOUNTAIN HOME  CLOUDY    53  53 100 E2        30.11R
$$

IDZ016-017-241700-
SOUTHCENTRAL IDAHO


CITY           SKY/WX    TMP DP  RH WIND       PRES   REMARKS
BURLEY         SUNNY     52  39  61 NE5       30.12R
JEROME         SUNNY     56  39  53 E9        30.12S
TWIN FALLS     SUNNY     59  39  47 CALM      30.12R
$$

IDZ019>023-241700-
SOUTHEAST IDAHO


CITY           SKY/WX    TMP DP  RH WIND       PRES   REMARKS
IDAHO FALLS    PTSUNNY   53  40  61 SW10      30.17R
POCATELLO      MOSUNNY   56  39  53 CALM      30.16R
REXBURG        CLOUDY    52  39  61 S9        30.16S
$$

IDZ006-010-011-018-031-032-241700-
CENTRAL IDAHO MOUNTAINS


CITY           SKY/WX    TMP DP  RH WIND       PRES   REMARKS
MCCALL         LGT RAIN  42  40  92 NE3       30.12R
HAILEY         PTSUNNY   48  45  87 W6        30.18R
STANLEY          N/A     43  40  89 VRB3      30.17R
SALMON         CLOUDY    46  45  93 CALM      30.12R
CHALLIS        CLOUDY    45  42  89 S3        30.12R
$$

IDZ002-004-006-007-026-241700-
NORTHERN IDAHO


CITY           SKY/WX    TMP DP  RH WIND       PRES   REMARKS
LEWISTON       CLOUDY    50  47  89 CALM      30.10R
LOWELL           N/A     50  48  93 N3        30.14S
COEUR D`ALENE  CLOUDY    45  39  81 CALM      30.09R
MULLAN PASS    CLOUDY    33  31  92 VRB3      30.08R
$$




    US Dept of Commerce
    National Oceanic and Atmospheric Administration
    National Weather Service
    1325 East West Highway
    Silver Spring, MD 20910
    Page Author: NWS Internet Services Team
Disclaimer
Information Quality
Credits
Glossary
Privacy Policy
Freedom of Information Act (FOIA)
About Us
Career Opportunities